Weather Service Report


327 
ASUS45 KBOU 231307
RWRCO 

WEATHER ROUNDUP FOR COLORADO
NATIONAL WEATHER SERVICE DENVER/BOULDER CO
600 AM MST THU FEB 23 2017

NOTE: "FAIR" INDICATES FEW OR NO CLOUDS BELOW 12000 FEET WITH NO
SIGNIFICANT WEATHER AND/OR OBSTRUCTIONS TO VISIBILITY.

COZ001>005-013-030-031-231400-
...NORTHWEST COLORADO...
  
CITY           SKY/WX    TMP DP  RH WIND       PRES   REMARKS
CRAIG          CLOUDY    27  23  85 SW8       29.48S WCI  19          
HAYDEN         FAIR      27  21  80 NW7       29.46R WCI  19          
MEEKER         FLURRIES  26  24  92 NW5       29.49S WCI  20          
MOUNT WERNER   NOT AVBL                                               
STEAMBOAT SPGS CLOUDY    26  25  96 W12       29.47R VSB 3/4 WCI  16  
WALDEN         NOT AVBL                                               
$$

COZ006>008-011-231400-
...WEST CENTRAL VALLEYS...
  
CITY           SKY/WX    TMP DP  RH WIND       PRES   REMARKS
GRAND JUNCTION MOCLDY    33  26  75 N10       29.57R WCI  25          
MONTROSE       CLOUDY    32  29  88 W5        29.58F WCI  27          
EAGLE          FLURRIES  30  28  92 CALM      29.49F                  
RIFLE          CLOUDY    33  29  85 W18G26    29.51S WCI  22          
DELTA          MOCLDY    38  29  69 SW7       29.55R                  
NUCLA          MOCLDY    30  21  69 W14       29.65R WCI  20          
$$

COZ017>023-064>068-231400-
...SOUTHWEST COLORADO...
  
CITY           SKY/WX    TMP DP  RH WIND       PRES   REMARKS
DURANGO        LGT SNOW  30  27  88 W26       29.62R FOG     WCI  16  
CORTEZ         MOCLDY    33  29  85 S18       29.64S WCI  22          
PAGOSA SPRINGS LGT SNOW  31  29  92 SW5       29.59F WCI  26          
TELLURIDE      SNOW      24  20  87 W22G35    29.56S VSB 1/2 WCI   8  
WOLF CREEK PAS HVY SNOW  14  14 100 S38       29.51F VSB<1/4 WCI  -9  
$$

COZ009-010-012-014-032>034-037-058>063-231400-
...CENTRAL COLORADO...
  
CITY           SKY/WX    TMP DP  RH WIND       PRES   REMARKS
ASPEN          LGT SNOW  28  27  96 N5        29.44F VSB 1   WCI  23  
BUENA VISTA    CLOUDY    31  23  71 W14       29.47F WCI  21          
COPPER MTN     FLURRIES  19  12  73 MISG      29.46F                  
BERTHOUD PASS  HAZE       9   0  66 SE15      29.46F VSB 1/4 WCI  -8  
COTTONWOOD PAS LGT SNOW  27  23  86 NW7       29.47F VSB 3/4 WCI  19  
GUNNISON       LGT SNOW  28  27  96 SW14G20   29.49F VSB 1   WCI  17  
KREMMLING      CLOUDY    39  19  45 W9G17     29.43F                  
LEADVILLE      LGT SNOW  20  16  84 SE6       29.44F FOG     WCI  12  
MONARCH PASS   SNOW      16  12  86 SW33      29.58R VSB 1/2 WCI  -5  
SALIDA         MOCLDY    38   8  28 SW14G24   29.54F                  
SUNLIGHT       NOT AVBL                                               
WILKERSON PASS CLOUDY    19  10  68 S8G17     29.52F WCI   9          
$$

COZ069>075-231400-
...SAN LUIS VALLEY/SANGRE DE CRISTO MOUNTAINS...
  
CITY           SKY/WX    TMP DP  RH WIND       PRES   REMARKS
ALAMOSA        MOCLDY    34  22  61 SW29G36   29.57F WCI  20          
LA VETA PASS   CLOUDY    27  18  69 NE25G45   29.56F WCI  11          
SAGUACHE       FAIR      32  14  47 SW16      29.50F WCI  21          
$$

COZ035-036-038>040-231400-
...NORTHERN COLORADO FRONT RANGE...
  
CITY           SKY/WX    TMP DP  RH WIND       PRES   REMARKS
DENVER INTL AP CLOUDY    28  23  81 E9        29.59F WCI  19          
DMNS CITY PARK   N/A     30  24  80 MISG      29.57F                  
AURORA         CLOUDY    25  25  99 N3        29.58F                  
FRONT RANGE AP NOT AVBL                                               
ERIE MUNI ARPT CLOUDY    32  28  83 E5        29.60F WCI  27          
BOULDER MUN AP MIX PCPN  32  30  93 CALM      29.59F                  
CENTENNIAL     CLOUDY    27  23  85 NE6       29.56F WCI  20          
BROOMFIELD     CLOUDY    30  27  86 NE6       29.59F WCI  24          
FORT COLLINS   MIX PCPN  32  30  92 E13       29.61F WCI  22          
LONGMONT       CLOUDY    35  29  79 E5        29.61F WCI  31          
$$

COZ041-046-047-076>085-087-088-231400-
...PIKES PEAK/PALMER DIVIDE AND SOUTHERN FOOTHILLS...
  
CITY           SKY/WX    TMP DP  RH WIND       PRES   REMARKS
COLO. SPRINGS  FAIR      29  20  69 NW14      29.52F WCI  18          
A. F. ACADEMY  FAIR      25  20  80 N10       29.52F WCI  15          
SCHRIEVER AFB  FAIR      25  21  83 N15G22    29.51F WCI  13          
ELLICOTT       FAIR     N/A N/A N/A N8        29.50F                  
FALCON         FAIR      24  22  91 N16G23    29.51F WCI  11          
FORT CARSON    FAIR      30  21  69 N16G25    29.51F WCI  19          
LIMON          CLOUDY    22  20  92 N7        29.57F WCI  13          
MONUMENT HILL  CLOUDY    23  23 100 NW7       29.56F WCI  15          
TRINIDAD       FAIR      44  18  35 SW6       29.54F                  
$$

COZ042>045-048>051-090-091-231400-
...NORTHEAST COLORADO...
  
CITY           SKY/WX    TMP DP  RH WIND       PRES   REMARKS
GREELEY ARPT   MIX PCPN  32  30  92 E12       29.63F WCI  23          
AKRON          CLOUDY    29  28  96 NE15      29.60F FOG     WCI  18  
BURLINGTON     CLOUDY    33  29  85 E22       29.57F WCI  21          
WRAY           NOT AVBL                                               
STERLING       MIX PCPN  32  32 100 E13       29.64F WCI  22          
HOLYOKE        CLOUDY    34  32  93 E17       29.67S FOG     WCI  23  
FORT MORGAN    DRIZZLE   32  30  94 NE18      29.62F WCI  20          
$$

COZ086-089-092>099-231400-
...SOUTHEAST COLORADO...
  
CITY           SKY/WX    TMP DP  RH WIND       PRES   REMARKS
PUEBLO         FAIR      33  20  58 NE6       29.53F WCI  28          
LA JUNTA       FAIR      31  17  56 W6        29.54S WCI  25          
LAMAR          FAIR      26  20  77 S3        29.51F                  
SPRINGFIELD      N/A     36  25  64 SW9       29.54S                  
$$
  

Return to Home page


Western Regional Climate Center, wrcc@dri.edu